Weather in Ust-Bolshereck

Russia / Kamchatka Krai     52°49′26″N   156°16′51″E
temp.,
°C
wind,
m/s
gust,
m/s
humid.,
%
clouds,
%
prec.,
mm/h
press.,
hPa
HPBL,
m
26 february, fri
fri2600:00−20nne3310098 0.1 100536
03:00−19ne2210098 0.1 100630
06:00−19ne2210098 0.1 100628
09:00−18ne239996 0.1 100728
12:00−13ne128977 0.1 1008108
15:00−10nnw22830 0.0 1008228
18:00−13nne01860 0.0 100930
21:00−16ese12880 0.0 101024
27 february, sat
sat2700:00−17ese23920 0.0 101125
03:00−17e239319 0.0 101125
06:00−16ene338943 0.0 101126
09:00−13ene3490100 0.0 101243
12:00−10ne5694100 0.1 1012210
15:00−6nne678398 0.1 1011350
18:00−6n7108589 0.1 1009183
21:00−10n8138850 0.0 1009198
28 february, sun
sun2800:00−12n8128255 0.0 1006187
03:00−10n81278100 0.1 1005242
06:00−8n81374100 0.1 1004295
09:00−9n6980100 0.0 1005213
12:00−7n8117592 0.0 1003441
15:00−5nnw10138024 0.0 1002566
18:00−5nw11158353 0.0 1001699
21:00−5nw101490100 0.2 1001621
1 march, mon
mon100:00−6wnw101380100 0.3 1001465
03:00−7wnw8117990 0.1 999211
06:00−7wnw8118194 0.1 998342
09:00−7wnw81277100 0.1 999308
12:00−5w91174100 0.3 9991284
15:00−5w101271100 0.2 10001514
18:00−6w91373100 0.3 1001504
21:00−6w91367100 0.1 1004310
2 march, tue
tue200:00−7w9126980 0.3 1006264
03:00−6w9137097 0.3 1008336
06:00−6w9126798 0.6 1010319
09:00−6w71169100 0.1 1013211
12:00−8nne458892 0.6 1016259
15:00−7ne227459 0.0 1018263
18:00−9ese237930 0.0 102031
21:00−11e3377100 0.0 102126